Stations météo

réclame
Mon MeteoGroup
Woensdrecht, Pays-Bas (6340): Température de l'air & dewpoint: 12.01.2019 13:00:00 - 18.01.2019 13:00:00 (CET)Woensdrecht, Pays-Bas (6340): Température de l'air 5cm: 12.01.2019 13:00:00 - 18.01.2019 13:00:00 (CET)Woensdrecht, Pays-Bas (6340): Vitesse du vent & gusts: 12.01.2019 13:00:00 - 18.01.2019 13:00:00 (CET)Woensdrecht, Pays-Bas (6340): Direction du vent: 12.01.2019 13:00:00 - 18.01.2019 13:00:00 (CET)Woensdrecht, Pays-Bas (6340): reduced air pressure: 12.01.2019 13:00:00 - 18.01.2019 13:00:00 (CET)Woensdrecht, Pays-Bas (6340): visibility: 12.01.2019 13:00:00 - 18.01.2019 13:00:00 (CET)Woensdrecht, Pays-Bas (6340): Quantités de précipitations: 12.01.2019 13:00:00 - 18.01.2019 13:00:00 (CET)
Date & Time tt [°C] td [°C] tt 5cm [°C] ff [km/h] ff [knt] fx [km/h] fx [knt] dd ppp [hPa] vv [km] rr [mm]
18.01.2019 13:00:00 2,3 1,0 2,3 5 3 11 6 SSE 1020,2 10 0,0
18.01.2019 12:00:00 1,2 0,8 1,1 5 3 7 4 SSE 1020,4 7 0,0
18.01.2019 11:00:00 1,1 0,7 0,9 5 3 11 6 S 1020,5 8 0,0
18.01.2019 10:00:00 -1,5 -1,6 -2,4 2 1 7 4 SSW 1020,1 8 0,0
18.01.2019 09:00:00 -3,4 -3,9 -4,5 2 1 4 2 E 1019,6 7 0,0
18.01.2019 08:00:00 -3,4 -3,4 -4,9 0 0 4 2 N 1019,0 1,3 0,0
18.01.2019 07:00:00 -3,3 -3,5 -5,3 0 0 4 2 N 1018,7 0,9 0,0
18.01.2019 06:00:00 -3,2 -3,2 -5,4 2 1 4 2 S 1018,3 1,2 0,0
18.01.2019 05:00:00 -3,1 -3,1 -4,7 0 0 4 2 N 1018,1 1,0 0,0
18.01.2019 04:00:00 -1,0 -1,0 -3,5 8 4 7 4 W 1017,5 10 0,0
18.01.2019 03:00:00 -1,2 -1,4 -4,0 5 3 7 4 WSW 1017,3 7 0,0
18.01.2019 02:00:00 -1,3 -1,3 -2,8 4 2 7 4 - 1016,4 10 0,0
18.01.2019 01:00:00 1,8 0,2 0,5 5 3 29 16 - 1015,7 10 0,0
18.01.2019 00:00:00 -0,1 -0,4 -1,7 4 2 14 8 - 1015,2 10 0,0
17.01.2019 23:00:00 2,0 0,8 0,9 11 6 18 10 W 1014,4 10 0,0
17.01.2019 22:00:00 2,2 0,8 1,2 11 6 18 10 W 1013,7 10 0,4
17.01.2019 21:00:00 1,8 0,3 1,1 8 4 43 23 WNW 1012,8 10 0,1
17.01.2019 20:00:00 2,7 -0,2 1,4 24 13 18 10 NW 1011,7 3,9 0,0
17.01.2019 19:00:00 2,7 0,4 1,3 9 5 18 10 NW 1010,6 10 0,0
17.01.2019 18:00:00 3,1 1,1 2,1 9 5 36 19 NW 1009,2 10 0,0
17.01.2019 17:00:00 2,8 1,8 2,4 24 13 65 35 WNW 1007,5 10 0,4
17.01.2019 16:00:00 4,1 0,7 3,6 31 17 43 23 W 1006,9 10 0,2
17.01.2019 15:00:00 1,6 0,5 1,6 34 18 61 33 WNW 1006,7 10 0,3
17.01.2019 14:00:00 2,8 0,7 2,9 16 9 43 23 W 1006,1 10 0,3
17.01.2019 13:00:00 4,0 1,0 4,0 18 10 54 29 WNW 1004,8 10 0,1
17.01.2019 12:00:00 4,0 2,8 4,0 22 12 43 23 NW 1004,2 4,5 0,3
17.01.2019 11:00:00 4,0 3,5 3,6 13 7 22 12 WSW 1003,2 10 0,3
17.01.2019 10:00:00 2,9 2,2 3,0 21 11 32 18 WNW 1002,8 10 1,3
17.01.2019 09:00:00 3,8 3,3 3,8 21 11 29 16 W 1002,0 5 1,8
17.01.2019 08:00:00 4,7 4,0 4,5 16 9 25 14 SW 1001,7 7 0,0
17.01.2019 07:00:00 4,4 3,8 3,8 15 8 22 12 SW 1001,7 6 0,0
17.01.2019 06:00:00 4,4 4,0 3,8 13 7 22 12 SW 1002,1 4,9 0,0
17.01.2019 05:00:00 4,5 4,0 3,8 11 6 22 12 SW 1002,3 10 0,0
17.01.2019 04:00:00 5,0 4,5 4,6 13 7 22 12 SW 1002,5 10 0,0
17.01.2019 03:00:00 5,1 4,7 4,8 13 7 22 12 SW 1002,7 10 0,0
17.01.2019 02:00:00 4,6 4,2 4,1 5 3 14 8 WSW 1002,6 10 0,0
17.01.2019 01:00:00 4,7 4,3 4,4 9 5 14 8 SW 1002,7 10 0,0
17.01.2019 00:00:00 5,2 4,6 5,1 13 7 54 29 NW 1002,6 10 0,2
16.01.2019 23:00:00 6,0 4,7 5,7 24 13 47 25 SW 1001,7 10 0,1
16.01.2019 22:00:00 6,1 4,1 5,8 24 13 43 23 SSW 1001,5 10 0,0
16.01.2019 21:00:00 5,9 3,6 5,6 24 13 50 27 SW 1002,1 10 0,1
16.01.2019 20:00:00 5,8 3,2 5,4 16 9 40 21 SSW 1002,6 10 0,1
16.01.2019 19:00:00 5,9 2,8 5,7 16 9 36 19 SSW 1003,3 10 0,0
16.01.2019 18:00:00 5,9 2,7 5,7 21 11 40 21 SSW 1004,0 10 0,0
16.01.2019 17:00:00 5,6 2,5 5,4 16 9 36 19 SSW 1004,8 10 0,0
16.01.2019 16:00:00 6,1 2,7 6,0 16 9 29 16 SSW 1005,4 10 0,0
16.01.2019 15:00:00 6,2 2,8 6,2 18 10 36 19 SSW 1005,8 10 0,0
16.01.2019 14:00:00 6,2 2,7 6,3 21 11 36 19 SSW 1007,1 10 0,0
16.01.2019 13:00:00 6,4 3,1 6,8 18 10 36 19 SSW 1008,1 10 0,0
16.01.2019 12:00:00 6,4 3,1 6,8 18 10 40 21 SSW 1009,1 10 0,0
16.01.2019 11:00:00 6,3 3,2 6,2 24 13 36 19 SW 1009,9 10 0,0
16.01.2019 10:00:00 6,1 2,9 6,0 22 12 40 21 SW 1010,7 10 0,0
16.01.2019 09:00:00 6,1 3,0 5,9 22 12 40 21 SW 1011,0 10 0,0
16.01.2019 08:00:00 6,3 3,5 6,0 22 12 36 19 SW 1011,1 10 0,0
16.01.2019 07:00:00 6,4 4,0 6,2 21 11 32 18 SW 1011,5 10 0,0
16.01.2019 06:00:00 6,4 4,6 6,2 18 10 32 18 SW 1012,1 10 0,0
16.01.2019 05:00:00 6,4 5,1 6,2 18 10 29 16 SW 1012,5 10 0,0
16.01.2019 04:00:00 6,6 5,6 6,4 18 10 29 16 SW 1013,3 10 0,0
16.01.2019 03:00:00 6,3 5,9 6,3 18 10 32 18 SW 1013,9 4,3 0,0
16.01.2019 02:00:00 6,7 6,2 6,6 18 10 32 18 SW 1014,3 6 0,0
16.01.2019 01:00:00 7,1 5,8 6,9 18 10 32 18 SW 1014,7 10 0,0
16.01.2019 00:00:00 7,2 5,6 7,0 18 10 32 18 SW 1015,1 10 0,0
15.01.2019 23:00:00 7,3 5,4 7,1 18 10 40 21 SW 1015,6 10 0,0
15.01.2019 22:00:00 7,5 4,7 7,1 24 13 40 21 SW 1016,2 10 0,0
15.01.2019 21:00:00 7,3 4,5 7,0 21 11 32 18 SW 1016,3 10 0,0
15.01.2019 20:00:00 7,2 4,4 6,9 21 11 29 16 SW 1016,8 10 0,0
15.01.2019 19:00:00 7,2 4,5 6,9 18 10 32 18 SW 1017,1 10 0,0
15.01.2019 18:00:00 7,1 4,5 6,9 18 10 40 21 SW 1017,2 10 0,0
15.01.2019 17:00:00 7,5 4,6 7,2 22 12 40 21 SW 1017,3 10 0,0
15.01.2019 16:00:00 7,4 4,6 7,2 21 11 40 21 WSW 1017,6 10 0,0
15.01.2019 15:00:00 7,4 4,2 7,2 24 13 36 19 WSW 1017,6 10 0,0
15.01.2019 14:00:00 7,2 4,5 7,0 22 12 32 18 SW 1018,0 10 0,0
15.01.2019 13:00:00 6,5 4,0 6,4 26 14 36 19 WSW 1018,7 10 0,0
15.01.2019 12:00:00 6,2 3,4 6,1 22 12 36 19 WSW 1019,2 10 0,0
15.01.2019 11:00:00 5,6 3,7 5,7 18 10 29 16 SW 1019,5 10 0,0
15.01.2019 10:00:00 5,2 3,8 4,9 18 10 32 18 WSW 1019,6 10 0,0
15.01.2019 09:00:00 5,2 4,1 4,8 15 8 25 14 SW 1019,8 10 0,0
15.01.2019 08:00:00 4,8 3,9 4,2 13 7 22 12 SW 1019,8 10 0,0
15.01.2019 07:00:00 5,2 4,2 4,6 13 7 22 12 SW 1020,0 10 0,0
15.01.2019 06:00:00 4,7 3,8 4,3 11 6 18 10 SW 1020,0 10 0,0
15.01.2019 05:00:00 4,5 3,5 4,2 15 8 25 14 SW 1020,6 10 0,0
15.01.2019 04:00:00 4,4 3,3 4,0 15 8 22 12 SW 1020,8 10 0,0
15.01.2019 03:00:00 3,6 3,1 2,9 13 7 22 12 SW 1021,1 9 0,0
15.01.2019 02:00:00 4,0 3,4 3,5 11 6 22 12 SW 1021,5 10 0,0
15.01.2019 01:00:00 3,9 3,2 3,3 9 5 18 10 SW 1021,5 10 0,0
15.01.2019 00:00:00 3,7 2,9 3,1 5 3 14 8 WSW 1021,7 10 0,0
14.01.2019 23:00:00 4,3 3,7 4,1 8 4 14 8 WSW 1021,8 10 0,0
14.01.2019 22:00:00 4,3 3,3 4,1 11 6 14 8 W 1021,5 10 0,0
14.01.2019 21:00:00 4,1 2,4 3,9 8 4 14 8 W 1021,3 10 0,0
14.01.2019 20:00:00 4,8 2,2 4,4 11 6 22 12 NW 1021,2 10 0,0
14.01.2019 19:00:00 4,1 2,3 3,5 9 5 14 8 W 1020,9 10 0,0
14.01.2019 18:00:00 3,4 1,6 1,6 5 3 11 6 WNW 1020,2 10 0,0
14.01.2019 17:00:00 4,7 1,4 3,4 9 5 25 14 NW 1019,9 10 0,0
14.01.2019 16:00:00 6,2 1,0 5,7 11 6 25 14 NW 1019,2 10 0,0
14.01.2019 15:00:00 6,8 1,7 6,9 18 10 32 18 NNW 1018,4 10 0,0
14.01.2019 14:00:00 6,3 1,1 6,2 18 10 32 18 NW 1017,9 10 0,0
14.01.2019 13:00:00 7,8 4,1 6,9 18 10 32 18 NW 1017,1 10 0,0
14.01.2019 12:00:00 6,5 4,1 6,7 13 7 29 16 NW 1016,6 10 0,7
14.01.2019 11:00:00 6,6 5,1 6,1 9 5 18 10 NW 1015,7 10 0,0
14.01.2019 10:00:00 6,3 5,4 6,0 11 6 32 18 WNW 1015,1 10 0,0
14.01.2019 09:00:00 6,3 5,0 5,8 16 9 36 19 WNW 1013,8 10 0,8
14.01.2019 08:00:00 6,4 5,3 6,3 21 11 36 19 WNW 1013,1 10 0,7
14.01.2019 07:00:00 5,5 4,2 4,9 13 7 40 21 WNW 1012,4 10 0,9
14.01.2019 06:00:00 6,6 5,2 6,1 18 10 32 18 W 1011,7 10 0,5
14.01.2019 05:00:00 6,9 4,7 6,4 18 10 29 16 WNW 1011,2 10 0,0
14.01.2019 04:00:00 6,9 4,5 5,9 16 9 36 19 WNW 1010,6 10 0,0
14.01.2019 03:00:00 7,2 4,4 6,5 21 11 32 18 WNW 1010,1 10 0,0
14.01.2019 02:00:00 7,0 4,1 5,8 16 9 29 16 WNW 1009,3 10 0,0
14.01.2019 01:00:00 7,1 4,2 6,2 18 10 32 18 WNW 1008,7 10 0,0
14.01.2019 00:00:00 7,3 4,4 6,4 16 9 32 18 WNW 1008,2 10 0,0
13.01.2019 23:00:00 7,9 5,1 7,1 16 9 43 23 WNW 1007,5 10 0,0
13.01.2019 22:00:00 8,8 4,7 8,0 24 13 43 23 WNW 1006,9 10 0,0
13.01.2019 21:00:00 8,7 6,7 8,0 26 14 47 25 WNW 1006,5 10 0,9
13.01.2019 20:00:00 8,8 7,4 8,3 28 15 54 29 WNW 1005,9 10 1,2
13.01.2019 19:00:00 8,9 7,9 8,5 29 16 47 25 W 1005,7 5 0,8
13.01.2019 18:00:00 9,2 7,4 8,8 29 16 47 25 W 1006,0 10 0,0
13.01.2019 17:00:00 9,1 7,3 8,6 34 18 50 27 W 1006,1 10 0,0
13.01.2019 16:00:00 9,0 7,4 8,6 34 18 50 27 W 1006,6 10 0,3
13.01.2019 15:00:00 9,0 7,6 8,7 34 18 43 23 W 1006,5 3,1 0,0
13.01.2019 14:00:00 8,9 7,8 8,8 29 16 43 23 W 1006,7 10 0,0
13.01.2019 13:00:00 8,9 7,8 8,7 29 16 40 21 W 1007,6 10 0,0
13.01.2019 12:00:00 8,8 7,9 8,6 26 14 40 21 WSW 1008,5 10 0,1
13.01.2019 11:00:00 8,8 7,9 8,6 22 12 36 19 W 1009,4 6 0,2
13.01.2019 10:00:00 8,7 7,5 8,4 24 13 36 19 W 1009,7 10 0,0
13.01.2019 09:00:00 8,8 7,4 8,5 26 14 40 21 W 1010,3 10 0,0
13.01.2019 08:00:00 8,8 7,5 8,5 24 13 36 19 W 1010,5 10 0,0
13.01.2019 07:00:00 8,6 7,8 8,3 24 13 36 19 W 1010,6 10 0,2
13.01.2019 06:00:00 8,5 8,2 8,3 22 12 32 18 W 1010,7 5 0,4
13.01.2019 05:00:00 8,4 8,4 8,3 21 11 32 18 W 1011,8 4,1 0,6
13.01.2019 04:00:00 8,1 8,1 8,0 21 11 32 18 W 1012,9 2,6 1,0
13.01.2019 03:00:00 7,9 7,8 7,8 21 11 32 18 W 1013,1 2,5 0,3
13.01.2019 02:00:00 7,7 7,6 7,6 21 11 29 16 W 1013,5 4,5 0,3
13.01.2019 01:00:00 7,5 7,3 7,4 18 10 29 16 W 1014,2 2,6 0,2
13.01.2019 00:00:00 8,0 6,3 7,8 21 11 32 18 W 1014,6 10 0,0
12.01.2019 23:00:00 8,1 6,0 7,7 18 10 32 18 WNW 1015,1 10 0,0
12.01.2019 22:00:00 8,2 5,9 7,8 22 12 36 19 W 1015,3 10 0,0
12.01.2019 21:00:00 8,1 6,0 7,8 22 12 40 21 W 1015,5 10 0,0
12.01.2019 20:00:00 8,1 6,2 7,8 24 13 36 19 W 1015,8 10 0,0
12.01.2019 19:00:00 8,0 6,5 7,6 24 13 36 19 W 1015,7 10 0,0
12.01.2019 18:00:00 8,0 6,7 7,8 24 13 36 19 W 1016,2 10 0,0
12.01.2019 17:00:00 8,1 6,6 7,8 28 15 43 23 W 1016,6 10 0,0
12.01.2019 16:00:00 8,4 6,8 8,1 29 16 47 25 W 1016,6 10 0,0
12.01.2019 15:00:00 7,9 7,2 7,8 29 16 50 27 W 1016,5 10 0,1
12.01.2019 14:00:00 7,7 6,8 7,6 31 17 43 23 W 1017,4 2,9 0,0
12.01.2019 13:00:00 6,9 6,7 6,9 26 14 43 23 WSW 1018,4 6 0,4

tt = Température de l'air
td = dewpoint
tt 5cm = Température de l'air 5cm
ff = Vitesse du vent
fx = gusts
dd = Direction du vent
ppp = reduced air pressure
vv = visibility
rr = Quantités de précipitations

stations d'obs. à proximité